Regional Weather Roundup
Issued by NWS Jackson, KY

Home | Current Version | Previous Version | Graphics & Text | Print | Product List | Glossary On
Versions: 1 2 3 4 5 6 7 8 9 10 11 12 13 14 15 16 17 18 19 20 21 22 23 24 25 26 27 28 29 30 31 32 33 34 35 36 37 38 39 40 41 42 43 44 45 46 47 48 49 50
000
ASUS43 KJKL 201810
RWRJKL

EAST KENTUCKY HOURLY WEATHER ROUNDUP
NATIONAL WEATHER SERVICE JACKSON KY
200 PM EDT WED AUG 20 2014

NOTE: "FAIR" INDICATES FEW OR NO CLOUDS BELOW 12,000 FEET WITH
NO SIGNIFICANT WEATHER AND/OR OBSTRUCTIONS TO VISIBILITY.

* THESE REPORTS ARE NOT UNDER NWS QUALITY CONTROL AND MAY NOT
  REPORT WEATHER SUCH AS PRECIPITATION AND FOG.

KYZ079-080-083-085-087-088-110-112-115-119-120-201900
...EASTERN KENTUCKY...

CITY           SKY/WX    TMP DP  RH WIND       PRES   REMARKS
JACKSON        MOSUNNY   82  71  69 VRB3      30.04S
6HR MIN TEMP:  67; 6HR MAX TEMP:  83; 6HR PCP: TRACE;

LONDON         MOSUNNY   87  72  60 W9        30.03S HX  93
6HR MIN TEMP:  72; 6HR MAX TEMP:  88;

SOMERSET*      MOSUNNY   86  72  62 W7        30.03R HX  92
MONTICELLO*    MOSUNNY   89  76  65 SW7       30.03S HX 100
6HR MIN TEMP:  71; 6HR MAX TEMP:  89;

WILLIAMSBURG*  MOSUNNY   86  75  70 SW5       30.03S HX  95
MIDDLESBORO*   PTSUNNY   83  73  70 S7        30.03F
6HR MIN TEMP:  67; 6HR MAX TEMP:  85;

HARLAN APT*    MOCLDY    81  72  74 MISG      30.06S
HAZARD APT*    CLOUDY    82  73  74 SW5       30.03S
BLACK MTN*       N/A     70  66  88 SW3         N/A
PIKEVILLE APT* CLOUDY    81  70  69 W6        30.03S
BIG SANDY*     MOCLDY    82  71  69 W7        30.02S
6HR MIN TEMP:  67; 6HR MAX TEMP:  83;

MOREHEAD APT*  MOCLDY    82  72  69 W7        30.02S
$$

KYZ035-036-041-042-044-050-067-078-099-201900
...CENTRAL KENTUCKY...

CITY           SKY/WX    TMP DP  RH WIND       PRES   REMARKS
MT STERLING*   PTSUNNY   84  73  70 W8        30.01F HX  91
FLEMING/MASON* PTSUNNY   84  72  65 W9        30.00S
DANVILLE*      PTSUNNY   88  73  62 CALM      30.02S HX  96
RICHMOND*      MOSUNNY   84  72  65 CALM      30.01S
LEXINGTON      PTSUNNY   87  73  62 W5        30.00S HX  94
6HR MIN TEMP:  72; 6HR MAX TEMP:  87;

FRANKFORT      MOSUNNY   87  71  58 VRB6      29.98R HX  93
6HR MIN TEMP:  70; 6HR MAX TEMP:  87;

$$

KYZ091>093-OHZ055-061-077-WVZ005-015-034-035-042-201900
...SOUTHERN OHIO/WEST VIRGINIA...

CITY           SKY/WX    TMP DP  RH WIND       PRES   REMARKS
COVINGTON      PTSUNNY   85  67  54 W9        29.97F
COLUMBUS       MOSUNNY   85  68  56 S13       29.94R
DAYTON         PTSUNNY   86  64  47 W17G23    29.97R
WILMINGTON     MOSUNNY   84  67  56 SW9       29.96S
HUNTINGTON     PTSUNNY   82  72  71 S6        29.97F
CHARLESTON     PTSUNNY   82  67  60 W7        29.98F
PINEVILLE*     MOSUNNY   83  71  66 MISG      30.10R
BECKLEY        MOSUNNY   79  63  57 W12       30.08S
BLUEFIELD      MOSUNNY   81  63  54 W10       30.11S
$$

VAZ002-007-008-TNZ017-027-036-066-071-201900
...SOUTHWEST VIRGINIA/EAST TENNESSEE...

CITY           SKY/WX    TMP DP  RH WIND       PRES   REMARKS
WISE*          MOSUNNY   79  66  65 W12       30.13R
JONESVILLE*      N/A     81  72  74 CALM      30.09S
ABINGDON*      CLOUDY    79  71  75 W6        30.10R
BRISTOL        MOSUNNY   79  66  64 S5        30.08S
KNOXVILLE      PTSUNNY   86  74  67 SW10      30.03F HX  94
OAK RIDGE      MOSUNNY   87  74  64 VRB3      30.04F HX  95
CROSSVILLE     SUNNY     85  71  63 W8        30.09F HX  90
NASHVILLE      PTSUNNY   94  74  52 W8        30.00R HX 104
$$

...KEY TO REMARKS...
VSB - VISIBILITY IN MILES
WCI - WIND CHILL INDEX
HX  - HEAT INDEX

$$


USA.gov is the U.S. government's official web portal to all federal, state and local government web resources and services.